Wind_Speed
8 8 7 7 7 7 7 7 7 7 4 1 0 1 2 3 3 3 2 1 1 1 1 1 1 0 1 2 2 2 2 1 1 0 1 1 1 1 1 1 2 2 1 1 1 1 1 1 1
9 9 9 9 8 8 10 9 8 8 6 3 2 2 1 2 2 2 2 1 1 1 1 1 1 1 2 3 4 4 4 4 3 2 2 2 2 2 2 2 1 1 1 2 2 2 2 2 2
11 11 11 11 11 11 12 11 10 9 7 5 4 3 2 2 2 3 2 2 1 1 2 2 3 3 4 5 6 6 6 6 6 5 5 4 4 4 3 3 3 3 3 3 3 4 4 4 4
14 13 13 13 14 15 14 13 12 10 9 7 7 6 5 4 4 4 3 3 3 2 3 4 5 5 6 7 7 8 8 8 8 8 7 7 6 6 6 5 5 5 5 5 5 6 6 6 6
17 16 16 16 18 18 17 15 14 13 12 10 9 8 7 6 5 5 4 4 4 5 5 6 7 8 9 9 9 9 9 9 9 10 9 9 9 8 8 7 7 7 7 7 7 7 8 8 8
18 18 18 18 21 21 20 18 16 16 14 12 11 10 9 7 6 6 5 5 5 6 6 7 9 10 10 11 11 11 11 11 11 11 11 11 10 10 9 9 9 9 9 9 9 9 9 9 9
20 20 20 21 22 23 23 20 19 18 17 15 13 12 11 9 7 6 6 6 6 6 7 9 10 11 12 12 12 13 13 13 13 13 13 13 12 12 12 12 11 11 11 11 11 10 11 11 11
21 21 21 22 23 26 25 22 21 20 19 18 16 15 12 11 8 7 7 8 8 9 10 11 12 12 13 14 15 15 15 15 15 15 15 15 15 15 15 14 14 13 13 13 13 12 13 13 13
21 21 22 24 25 27 27 24 22 22 21 19 18 16 14 12 10 9 9 10 10 11 12 13 14 15 15 16 16 17 17 17 18 18 18 18 18 18 17 17 16 16 16 16 15 15 15 15 15
20 21 23 25 26 28 28 26 24 23 23 22 20 19 17 13 12 11 11 12 13 13 14 15 16 18 18 18 19 19 19 20 20 21 22 21 21 21 20 19 19 18 18 18 18 18 17 17 17
19 19 21 23 25 26 27 27 25 25 24 24 23 20 17 15 14 13 14 15 14 15 16 17 18 19 20 20 22 22 22 22 22 22 23 23 23 23 22 21 22 21 21 21 21 20 20 20 19
16 17 18 20 23 23 25 26 25 26 26 25 23 19 18 17 16 16 17 16 16 17 18 19 19 20 21 21 23 23 23 22 22 22 22 23 23 22 23 23 23 23 23 22 22 21 21 21 21
13 13 15 16 19 20 23 24 24 25 26 25 23 22 20 19 19 19 19 18 19 19 20 20 21 21 22 23 24 24 24 23 22 22 22 22 21 21 22 23 24 24 24 23 23 23 22 21 21
12 11 11 12 14 16 19 21 22 22 23 23 23 22 21 21 20 20 20 21 20 21 21 21 22 22 21 21 21 21 22 21 21 21 22 23 22 22 22 21 22 23 23 23 24 24 24 24 23
12 11 11 10 10 11 14 17 19 20 21 21 21 21 21 20 19 20 21 21 20 20 21 22 21 20 21 21 20 19 19 21 20 19 19 20 20 21 22 23 23 24 25 25 25 25 25 26 25
12 12 11 11 8 7 9 13 16 18 19 20 21 21 20 20 19 19 20 19 19 19 19 19 19 18 18 18 18 18 19 19 19 19 20 20 22 23 23 24 24 25 26 27 27 26 26 26 27
13 10 9 11 8 4 6 11 13 15 17 18 18 18 19 19 19 19 19 19 19 18 17 17 17 17 16 16 17 17 18 19 20 20 21 23 23 24 25 26 26 26 27 28 28 28 28 28 28
9 9 8 9 7 4 5 8 11 14 15 16 17 17 18 19 18 18 18 18 17 17 16 16 16 15 15 15 16 17 18 19 20 21 23 24 24 26 27 27 28 28 29 30 30 30 30 30 30
9 10 10 9 7 5 5 6 9 12 14 16 17 17 17 17 16 16 15 15 14 13 13 13 14 15 15 16 17 18 20 21 22 23 24 25 26 27 28 29 29 30 30 31 31 32 32 32 32
9 10 11 9 6 5 5 5 7 9 12 14 16 16 16 16 14 14 13 12 12 12 13 13 14 15 16 18 19 20 22 23 24 25 26 27 28 29 30 30 31 31 31 31 32 32 33 33 33
9 10 10 8 6 4 5 4 5 7 9 10 12 13 12 12 12 11 11 12 12 11 12 13 14 15 17 19 21 23 24 25 26 27 28 29 30 31 31 31 32 32 32 32 32 32 33 33 33
8 9 9 8 7 6 5 5 4 3 3 5 7 7 8 9 9 10 11 11 11 11 12 13 15 17 19 21 23 24 26 27 29 30 30 30 31 31 31 31 31 31 32 32 32 33 33 33 33
8 9 9 7 6 6 5 4 4 3 3 2 3 4 5 7 8 9 9 9 10 12 14 16 17 19 21 23 24 26 27 29 29 30 30 30 30 30 31 31 31 31 31 31 32 32 33 33 33
8 8 8 7 7 6 4 4 4 4 4 3 3 4 6 6 8 9 10 11 12 14 16 18 19 21 23 24 25 27 28 28 28 28 29 30 30 30 30 30 30 31 31 31 31 32 32 32 33
7 7 8 9 8 6 5 4 4 5 4 4 5 5 6 7 9 10 11 13 14 16 18 20 21 22 23 24 25 26 26 27 27 28 28 29 29 29 29 30 30 31 31 31 31 32 32 32 33
6 5 4 3 4 5 5 5 5 5 5 5 6 6 8 9 10 11 13 14 16 18 19 21 22 22 23 24 25 25 26 26 27 27 28 28 29 29 29 30 30 31 31 32 32 32 32 33 33
6 4 4 4 5 5 6 6 6 6 7 7 8 9 10 11 12 13 14 16 17 19 20 21 22 22 23 24 24 24 25 26 27 27 28 28 29 29 29 30 30 31 31 31 32 32 32 33 34
6 5 4 2 2 3 7 7 7 7 8 9 10 11 11 12 13 14 15 16 18 19 20 21 21 22 22 23 23 24 25 26 27 28 28 29 29 30 30 30 31 31 32 32 33 33 34 34 35
7 6 4 3 3 1 4 8 9 9 9 10 10 11 11 12 13 14 16 17 18 19 20 20 21 21 22 23 24 25 26 27 28 28 29 29 30 31 31 32 32 32 33 33 33 34 34 35 36
8 7 6 5 6 5 5 10 11 10 10 10 10 11 11 12 14 15 16 17 18 19 20 20 21 22 22 23 25 26 27 28 29 30 31 32 33 33 33 33 33 34 34 34 34 35 35 35 35
Wind_Direction
336 329 321 310 307 307 295 295 295 298 288 280 309 53 65 63 56 52 35 36 65 39 59 80 97 239 281 289 287 291 288 285 299 343 24 42 51 52 49 53 58 50 40 31 24 19 26 114 136
322 313 303 298 293 285 281 282 284 290 290 282 275 296 348 21 30 26 355 351 349 328 329 338 266 260 268 277 282 287 288 282 279 282 285 291 307 317 318 313 317 316 308 294 287 294 279 253 223
307 301 295 290 282 269 269 274 274 276 275 268 265 275 296 304 324 333 319 327 326 296 281 293 291 283 279 279 281 284 287 283 280 279 278 279 282 287 292 293 292 289 284 280 277 278 275 266 245
295 291 284 278 271 270 267 267 265 264 263 261 263 270 277 282 299 310 310 315 303 281 267 276 285 287 287 286 285 284 284 282 281 279 277 276 275 277 281 281 282 282 279 276 273 274 275 268 256
289 284 278 274 266 265 262 260 259 257 259 258 259 264 269 278 292 301 298 295 286 276 271 279 285 288 290 289 286 285 284 282 280 279 278 276 274 274 274 274 275 278 279 277 273 274 276 273 265
284 279 273 265 262 261 259 256 253 251 252 252 255 259 264 275 287 292 289 282 282 280 276 277 285 288 289 287 283 283 283 282 281 280 280 278 274 272 271 272 274 276 276 275 272 273 273 272 270
280 275 268 263 261 256 255 254 250 249 249 248 252 254 261 267 274 285 288 290 290 285 284 286 287 284 287 286 283 282 282 280 279 278 277 277 275 273 272 272 274 275 273 271 270 269 268 269 270
279 274 267 261 255 252 254 252 248 246 246 247 248 249 254 261 267 279 287 292 288 286 286 288 288 284 283 285 284 283 282 279 277 275 274 273 272 272 271 270 273 273 272 269 267 265 266 267 267
281 273 265 258 251 250 251 248 245 243 244 244 245 248 250 258 264 274 282 285 284 282 281 282 282 281 280 280 281 280 281 278 276 274 271 272 273 271 270 269 270 271 272 270 267 265 265 266 265
283 272 264 258 252 250 248 244 241 239 241 241 243 247 250 261 266 274 279 280 280 279 279 277 275 276 279 278 278 277 277 275 272 274 273 272 271 270 269 269 270 271 271 269 268 267 265 266 265
285 274 266 259 254 250 245 240 238 236 238 239 242 246 252 263 270 275 278 278 281 279 277 276 278 279 279 278 279 279 275 275 273 272 272 272 272 269 269 269 268 269 271 271 269 267 267 266 266
291 281 272 262 256 250 243 238 235 234 236 240 243 247 257 267 268 277 280 280 282 279 277 277 280 281 279 277 276 277 277 278 279 279 279 281 284 279 274 274 273 273 274 274 271 270 270 270 269
303 295 283 272 262 251 243 236 233 233 236 238 240 246 256 266 272 277 280 281 281 280 280 279 279 278 278 279 281 279 280 279 279 282 283 284 286 287 288 283 279 279 277 276 273 273 273 273 272
324 315 300 283 269 255 243 236 231 231 234 241 245 249 256 263 268 272 277 277 279 280 280 280 279 276 277 281 284 284 284 285 284 282 283 283 284 285 287 285 285 287 282 282 279 277 273 271 271
344 338 328 307 283 260 244 235 229 230 232 239 246 254 260 264 268 273 277 276 280 284 282 280 281 279 280 281 286 288 285 285 289 289 289 289 288 288 291 288 286 286 284 283 282 280 276 271 269
356 356 345 329 314 273 245 236 229 228 232 239 246 253 257 263 267 271 275 278 281 283 282 280 280 283 288 290 292 293 289 288 292 293 293 293 292 290 291 290 287 285 282 281 280 278 277 275 270
354 348 334 327 329 299 247 237 229 229 233 238 244 250 258 264 266 271 275 278 280 281 281 281 283 287 290 293 294 295 294 293 293 295 294 293 291 290 289 289 285 285 283 281 279 277 276 273 270
331 334 329 320 321 296 256 239 234 230 233 238 244 251 257 262 266 270 276 278 277 277 281 281 283 288 293 294 297 298 298 297 296 297 296 294 293 291 291 289 288 285 283 280 278 277 275 272 270
342 336 328 320 322 303 264 245 240 233 234 241 245 251 256 263 270 270 272 276 277 279 283 286 288 293 296 298 299 299 299 298 298 297 296 295 294 293 292 291 289 286 284 281 279 277 274 272 270
346 342 335 327 318 306 286 267 253 246 241 244 246 252 258 263 266 270 272 276 279 283 285 290 295 298 299 300 301 300 300 299 298 298 297 296 295 294 293 291 290 287 284 281 279 276 274 272 269
340 341 338 335 327 308 294 283 268 255 246 246 248 251 259 265 267 270 275 283 284 290 293 295 299 299 300 301 301 300 300 300 300 299 298 297 295 294 293 292 290 288 285 282 279 276 274 271 269
335 340 341 343 347 334 322 311 313 315 277 261 254 253 260 268 272 279 287 291 293 296 299 300 300 300 301 301 301 302 303 303 303 301 300 299 297 296 295 293 291 288 286 283 280 278 275 272 269
338 344 348 349 357 359 355 348 343 335 326 295 263 265 277 279 284 290 294 299 299 298 299 300 302 302 302 303 304 304 304 304 303 303 302 301 300 299 297 294 291 289 286 284 281 279 276 273 270
335 344 356 7 13 360 353 356 342 334 329 317 309 300 297 293 297 300 302 302 301 301 303 304 304 304 304 305 305 304 304 304 304 304 304 303 302 300 298 295 293 290 287 285 282 280 277 275 272
334 353 10 5 353 336 334 349 334 331 329 319 314 312 310 310 309 306 304 305 307 307 307 306 305 305 306 306 306 306 306 306 306 306 305 304 303 301 299 297 294 292 290 287 284 281 278 276 273
328 346 351 346 329 326 326 328 329 335 337 336 329 324 319 316 312 308 307 307 308 309 307 306 307 308 309 309 309 310 309 309 309 308 307 306 304 303 301 299 296 293 290 288 285 282 280 277 274
302 311 317 335 337 337 318 319 320 321 326 328 328 323 319 317 314 311 309 307 307 307 307 308 309 310 311 311 312 313 313 312 312 311 310 309 308 306 303 300 298 294 291 288 286 283 281 278 275
278 287 305 350 329 337 322 314 311 311 317 320 320 319 318 315 311 309 307 307 307 309 310 312 312 312 313 315 316 317 317 316 315 314 313 312 310 308 305 302 299 296 293 290 287 284 282 279 276
267 275 288 296 283 280 310 299 300 304 310 313 314 314 314 311 308 307 308 309 310 312 314 315 314 315 317 318 319 319 319 319 318 317 316 314 312 309 307 304 302 298 294 291 288 286 284 281 277
262 269 279 289 289 282 289 294 297 303 307 310 310 312 311 309 307 307 308 310 313 315 316 317 319 320 321 320 320 321 321 321 320 319 318 316 314 311 308 306 303 300 296 292 289 287 285 282 278
Height
5930 5929 5929 5928 5929 5929 5928 5927 5926 5926 5925 5925 5924 5924 5923 5923 5924 5925 5923 5921 5921 5921 5920 5920 5920 5920 5920 5919 5919 5918 5917 5917 5916 5916 5915 5915 5914 5914 5914 5913 5913 5912 5912 5912 5911 5911 5911 5910 5910
5929 5928 5928 5928 5928 5928 5927 5926 5925 5924 5924 5924 5923 5923 5922 5922 5922 5921 5920 5920 5919 5919 5919 5920 5920 5920 5919 5919 5918 5918 5917 5916 5916 5915 5915 5914 5914 5914 5913 5913 5913 5912 5912 5912 5911 5911 5910 5910 5910
5926 5926 5926 5926 5925 5925 5924 5924 5923 5923 5923 5922 5922 5922 5921 5921 5920 5920 5919 5918 5918 5918 5918 5919 5919 5919 5919 5918 5918 5917 5916 5915 5915 5914 5914 5914 5913 5913 5912 5912 5912 5911 5911 5911 5910 5910 5910 5909 5909
5924 5923 5923 5924 5922 5921 5921 5921 5921 5921 5921 5921 5921 5920 5919 5919 5919 5918 5918 5917 5917 5917 5917 5917 5917 5917 5917 5917 5916 5916 5915 5914 5914 5913 5913 5912 5912 5911 5911 5911 5910 5910 5910 5910 5909 5909 5909 5908 5908
5920 5920 5920 5920 5918 5917 5917 5918 5918 5919 5919 5919 5919 5918 5918 5917 5917 5917 5916 5916 5916 5916 5915 5915 5915 5915 5915 5915 5914 5914 5913 5913 5912 5912 5911 5911 5910 5910 5909 5909 5909 5908 5908 5908 5907 5907 5907 5907 5906
5916 5916 5917 5916 5914 5913 5913 5914 5915 5916 5916 5916 5917 5916 5916 5916 5915 5915 5915 5914 5914 5914 5914 5913 5913 5913 5913 5913 5912 5911 5911 5910 5910 5909 5909 5909 5908 5908 5907 5907 5907 5906 5906 5906 5906 5905 5905 5905 5904
5912 5911 5911 5910 5909 5908 5908 5910 5912 5913 5913 5914 5914 5914 5913 5913 5913 5913 5913 5913 5912 5912 5912 5911 5911 5911 5910 5910 5909 5909 5908 5908 5907 5907 5907 5906 5906 5905 5905 5904 5904 5904 5904 5903 5903 5903 5902 5902 5902
5905 5906 5905 5905 5904 5903 5903 5906 5908 5909 5910 5911 5912 5911 5911 5911 5911 5911 5911 5910 5910 5910 5910 5909 5909 5908 5907 5907 5907 5906 5905 5905 5904 5904 5903 5903 5902 5901 5901 5901 5901 5901 5900 5900 5900 5900 5899 5899 5899
5899 5901 5900 5899 5898 5897 5898 5901 5903 5905 5907 5907 5908 5909 5909 5908 5909 5909 5909 5908 5908 5908 5907 5907 5906 5905 5905 5904 5904 5903 5902 5901 5901 5900 5899 5899 5898 5897 5897 5897 5897 5897 5897 5896 5896 5896 5896 5896 5896
5894 5894 5893 5892 5892 5892 5893 5896 5899 5901 5902 5904 5905 5905 5905 5906 5906 5906 5906 5906 5906 5905 5905 5904 5903 5902 5901 5901 5900 5899 5898 5897 5896 5896 5895 5894 5893 5893 5892 5892 5892 5892 5892 5892 5892 5892 5892 5892 5892
5887 5887 5886 5885 5885 5887 5888 5891 5894 5897 5898 5899 5900 5901 5902 5903 5903 5904 5904 5903 5903 5902 5901 5901 5900 5899 5898 5897 5896 5895 5894 5893 5892 5891 5890 5889 5888 5887 5887 5887 5886 5886 5886 5886 5886 5886 5886 5887 5887
5883 5881 5880 5880 5880 5882 5883 5886 5889 5892 5894 5895 5896 5898 5898 5899 5900 5900 5900 5900 5899 5899 5898 5897 5897 5896 5895 5893 5892 5891 5890 5889 5887 5886 5886 5885 5884 5883 5882 5882 5881 5881 5880 5880 5881 5880 5881 5881 5881
5878 5877 5876 5875 5876 5877 5879 5881 5884 5887 5889 5891 5893 5894 5895 5896 5897 5897 5896 5896 5896 5895 5894 5893 5893 5892 5891 5889 5888 5887 5886 5885 5884 5882 5881 5880 5879 5878 5878 5876 5876 5876 5875 5875 5874 5875 5875 5875 5876
5875 5874 5872 5872 5871 5872 5875 5877 5880 5883 5885 5888 5890 5890 5890 5892 5893 5893 5893 5892 5892 5891 5890 5889 5888 5887 5887 5885 5884 5882 5881 5880 5879 5878 5877 5876 5875 5874 5873 5872 5871 5871 5870 5870 5870 5869 5870 5870 5870
5873 5871 5870 5869 5869 5870 5872 5874 5877 5880 5882 5885 5886 5887 5887 5888 5888 5889 5888 5888 5887 5886 5886 5885 5883 5883 5882 5881 5880 5878 5877 5876 5875 5873 5872 5871 5870 5870 5869 5868 5866 5865 5865 5864 5864 5863 5863 5864 5864
5872 5871 5871 5868 5867 5868 5871 5873 5874 5877 5879 5881 5882 5883 5883 5883 5884 5884 5884 5883 5883 5882 5881 5880 5879 5879 5878 5877 5876 5875 5874 5872 5871 5870 5868 5867 5865 5865 5864 5862 5860 5859 5858 5858 5858 5857 5857 5857 5857
5873 5873 5871 5868 5866 5866 5868 5870 5871 5873 5875 5877 5878 5879 5880 5880 5880 5880 5880 5879 5879 5878 5877 5876 5876 5876 5875 5874 5873 5871 5870 5868 5867 5865 5864 5862 5860 5859 5858 5856 5854 5853 5852 5851 5850 5850 5850 5849 5849
5874 5872 5870 5868 5866 5865 5866 5867 5868 5870 5872 5873 5875 5876 5876 5877 5877 5877 5876 5876 5875 5874 5873 5873 5873 5872 5871 5870 5869 5867 5865 5864 5862 5860 5859 5857 5855 5853 5851 5849 5847 5846 5845 5844 5843 5842 5842 5841 5842
5872 5870 5868 5866 5865 5864 5864 5864 5865 5866 5868 5870 5871 5872 5872 5873 5873 5872 5872 5872 5870 5869 5870 5869 5869 5869 5867 5866 5865 5863 5861 5859 5857 5855 5853 5851 5848 5846 5844 5842 5840 5839 5837 5836 5835 5834 5834 5833 5833
5871 5869 5868 5865 5864 5863 5863 5863 5863 5863 5865 5866 5867 5868 5868 5869 5868 5869 5869 5868 5868 5867 5867 5867 5866 5865 5864 5862 5860 5858 5856 5854 5852 5849 5847 5844 5841 5839 5836 5834 5832 5830 5829 5827 5826 5825 5825 5824 5824
5870 5869 5867 5864 5863 5862 5862 5862 5861 5861 5861 5862 5863 5864 5865 5865 5865 5865 5866 5865 5865 5865 5864 5863 5862 5861 5860 5858 5856 5853 5851 5848 5845 5843 5840 5837 5834 5831 5829 5826 5824 5822 5820 5819 5818 5816 5816 5816 5815
5870 5868 5866 5864 5862 5862 5862 5861 5861 5859 5859 5860 5860 5861 5862 5863 5863 5863 5863 5863 5862 5862 5861 5860 5859 5857 5855 5853 5850 5847 5844 5841 5838 5835 5832 5829 5826 5823 5820 5818 5816 5814 5812 5810 5809 5807 5807 5806 5806
5869 5867 5865 5864 5862 5862 5861 5861 5861 5859 5859 5860 5860 5860 5861 5861 5861 5861 5861 5860 5860 5859 5858 5857 5855 5853 5850 5848 5845 5841 5838 5835 5831 5828 5824 5820 5818 5815 5812 5809 5807 5805 5803 5802 5800 5799 5798 5797 5797
5869 5867 5866 5864 5863 5863 5862 5862 5861 5859 5859 5859 5859 5859 5859 5859 5859 5859 5859 5858 5857 5856 5855 5853 5851 5848 5845 5842 5839 5836 5832 5828 5825 5821 5817 5814 5810 5807 5804 5802 5799 5797 5795 5793 5791 5790 5789 5788 5787
5869 5868 5868 5867 5866 5864 5862 5862 5862 5859 5859 5859 5859 5858 5858 5858 5858 5857 5856 5855 5854 5853 5851 5848 5846 5843 5840 5837 5834 5830 5826 5822 5819 5815 5811 5807 5804 5800 5797 5794 5791 5789 5786 5784 5782 5781 5780 5779 5778
5868 5868 5869 5869 5867 5865 5862 5861 5861 5859 5858 5858 5857 5857 5857 5856 5856 5855 5854 5853 5851 5849 5847 5844 5842 5839 5835 5832 5828 5824 5821 5817 5813 5809 5805 5801 5797 5793 5790 5787 5783 5780 5778 5775 5773 5772 5770 5769 5769
5867 5867 5867 5866 5865 5865 5863 5861 5860 5859 5858 5857 5857 5856 5855 5854 5853 5852 5851 5850 5848 5846 5843 5840 5837 5834 5830 5827 5823 5819 5815 5811 5807 5803 5798 5794 5790 5786 5782 5779 5775 5772 5769 5767 5764 5762 5761 5760 5759
5866 5866 5865 5866 5865 5866 5864 5861 5861 5858 5857 5856 5855 5854 5853 5852 5851 5850 5848 5847 5844 5842 5839 5836 5832 5829 5825 5822 5818 5814 5809 5805 5801 5796 5792 5787 5783 5779 5774 5771 5767 5763 5760 5757 5755 5753 5751 5749 5748
5865 5865 5864 5864 5863 5864 5865 5864 5859 5857 5856 5855 5854 5853 5851 5850 5849 5847 5845 5843 5841 5838 5835 5831 5828 5824 5821 5816 5812 5808 5804 5799 5794 5790 5785 5780 5775 5771 5766 5762 5758 5754 5751 5748 5745 5742 5740 5738 5737
5862 5862 5862 5863 5862 5861 5862 5864 5857 5855 5854 5853 5852 5850 5849 5848 5846 5844 5842 5840 5837 5834 5831 5827 5823 5819 5815 5811 5807 5802 5798 5793 5788 5783 5778 5773 5767 5762 5758 5753 5749 5745 5741 5737 5734 5732 5729 5727 5726